OBJECT U, 62395

Orbit data source: Space-Track

You're viewing an Uncataloged Satellite

Recently launched and/or uncataloged satellites may have evolving metadata. Metadata may include but not limited to: Owner, Maufacturer, Bus, Motor, and Mission.

OBJECT U, 62395 is a satellite in LEO that was launched on Sat, 21 Dec 2024 UTC via an FALCON 9 launch vehicle from the Air Force Western Test Range (AFWTR). Unknown objects in Earth's orbit typically refer to objects detected orbiting the Earth but have not yet been identified or cataloged. These objects could be anything from previously untracked satellites, spent rocket stages, debris from satellite collisions, or even natural meteoroids temporarily captured by Earth's gravity.

Loading next visibility...
Identifier
62395, 2024-247U
Orbit
LEO
Country
Flag of TBDTBD
Related business
Flag of USONDO Space LLC (US)
Manufacturer
ONDO Space
Mission
Operational Commercial Communications
Bus & Motor
CUBESAT 0.5U, Unknown motor
Mass
0.25 kg wet, 0.25 kg dry
Launch date (UTC)
2024-12-21 (1 year ago)
Launch vehicle
FALCON 9
Launch site
Air Force Western Test Range (AFWTR)
Object type
Unknown
Shape & HBR
Box, 0.0 m
Radar Cross Section
0.004 m², Small (<0.1 m²)

Expand to show TLE details & history
Last TLE update: 2 days ago

TLE from 2 days ago
0 OBJECT U
1 62395U 24247U   25348.01506484  .00025554  00000-0  71934-3 0  9992
2 62395  44.9983 209.6384 0009195 199.4443 160.6094 15.36036078 54817
Epoch: 2025-12-14T00:21Z
TLE epoch observation values (Epoch: 2025-12-14T00:21:41.602Z)
Latitude
0.00002°
Longitude
121.28103°
Altitude
463.772 km
Speed
7.633 km/s
True Right ascension
13h 58m 33s
True Declination
0° 00' 00"
Sunlit
Object was in daylight at epoch
Visualization orbit readout
Latitude
Unknown
Longitude
Unknown
Altitude
Unknown
Speed
Unknown
Apparent Right ascension
Unknown
Apparent Declination
Unknown
Sunlit
N/A
Visualization observer readout
Local Sidereal Time
17:10:07
Azimuth
Unknown
Elevation
Unknown
Doppler factor
Unknown
Orbital elements
Apogee altitude
465.747 km
Perigee altitude
453.173 km
Semi-major axis
6,837.597 km
Eccentricity
0.00092
Inclination
44.9983°
RAAN
209.6384°
Arg. of periapsis
199.4443°
True anomaly
160.64434°
Mean anomaly
160.6094°
Eccentric anomaly
160.62688°
Mean motion
3.83873 °/min
Orbital period
93.78 mins
BSTAR
0.00071934
Loading maneuver chart data...
Computing Atmospheric mass density...
Loading historical data...
Loading historical data...
Loading historical data...
Loading historical data...
Loading historical data...
Loading historical data...
Loading historical data...

Documentation

Showing up to 5 results
|